$Date,$Time,DM0201B,DM0203B,DM0205B,DM0207B,DM0209B
10/10/98,00:00:01,722,169,-18,112,932
10/10/98,00:05:01,765,160,-18,104,932
10/10/98,00:10:01,730,173,-18,114,932
10/10/98,00:15:01,707,172,-18,93,932
10/10/98,00:20:01,722,172,-18,106,932
10/10/98,00:25:01,741,172,-18,111,934
10/10/98,00:30:01,645,172,-18,97,934
10/10/98,00:35:01,617,172,-18,124,934
10/10/98,00:40:01,617,172,-19,120,934
10/10/98,00:45:01,729,172,-19,122,934
10/10/98,00:50:01,562,172,-18,117,934
10/10/98,00:55:01,584,170,-19,122,934
10/10/98,01:00:01,689,163,-19,126,934
10/10/98,01:05:01,623,166,-19,116,934
10/10/98,01:10:01,610,166,-19,108,934
10/10/98,01:15:01,740,176,-19,113,934
10/10/98,01:20:01,731,162,-19,111,934
10/10/98,01:25:01,799,173,-19,109,934
10/10/98,01:30:01,750,162,-19,120,934
10/10/98,01:35:01,714,172,-19,111,932
10/10/98,01:40:01,784,160,-19,114,932
10/10/98,01:45:01,715,170,-19,117,932
10/10/98,01:50:01,602,170,-19,111,934
10/10/98,01:55:01,789,170,-18,112,934
10/10/98,02:00:01,731,170,-18,111,934
10/10/98,02:05:01,672,180,-18,105,934
10/10/98,02:10:01,627,170,-18,101,934
10/10/98,02:15:01,671,181,-18,102,936
10/10/98,02:20:01,682,169,-18,109,934
10/10/98,02:25:01,696,169,-19,87,934
10/10/98,02:30:01,740,169,-19,96,934
10/10/98,02:35:01,777,169,-19,99,934
10/10/98,02:40:01,711,167,-19,107,934
10/10/98,02:45:01,759,169,-19,102,934
10/10/98,02:50:01,780,179,-19,108,934
10/10/98,02:55:01,802,169,-19,103,934
10/10/98,03:00:01,754,169,-19,103,934
10/10/98,03:05:01,753,169,-19,103,932
10/10/98,03:10:01,746,169,-19,103,932
10/10/98,03:15:01,797,169,-19,103,932
10/10/98,03:20:01,744,169,-19,92,932
10/10/98,03:25:01,685,169,-19,88,932
10/10/98,03:30:01,775,169,-18,82,932
10/10/98,03:35:01,751,169,-18,86,934
10/10/98,03:40:01,718,170,-18,92,934
10/10/98,03:45:01,723,181,-18,88,936
10/10/98,03:50:01,715,181,-18,88,936
10/10/98,03:55:01,558,181,-18,90,936
10/10/98,04:00:01,547,181,-18,84,936
10/10/98,04:05:01,592,181,-18,84,936
10/10/98,04:10:01,567,180,-18,84,936
10/10/98,04:15:01,594,180,-18,84,936
10/10/98,04:20:01,493,191,-18,78,936
10/10/98,04:25:01,452,181,-18,78,936
10/10/98,04:30:01,461,181,-18,80,936
10/10/98,04:35:01,610,171,-18,82,936
10/10/98,04:40:01,664,171,-18,82,934
10/10/98,04:45:01,744,181,-18,80,934
10/10/98,04:50:01,733,169,-18,78,934
10/10/98,04:55:01,661,180,-18,76,934
10/10/98,05:00:01,669,180,-18,76,934
10/10/98,05:05:01,660,180,-18,72,934
10/10/98,05:10:01,672,180,-17,66,936
10/10/98,05:15:01,586,191,-17,62,936
10/10/98,05:20:01,627,190,-17,62,936
10/10/98,05:25:01,580,177,-17,62,936
10/10/98,05:30:01,613,187,-17,60,936
10/10/98,05:35:01,559,187,-17,56,936
10/10/98,05:40:01,572,187,-17,52,936
10/10/98,05:45:01,532,187,-17,52,936
10/10/98,05:50:01,500,187,-17,52,936
10/10/98,05:55:01,547,187,-17,50,936
10/10/98,06:00:01,461,187,-17,50,936
10/10/98,06:05:01,533,171,-17,50,936
10/10/98,06:10:01,580,182,-17,54,936
10/10/98,06:15:01,548,182,-17,54,936
10/10/98,06:20:01,554,168,-17,52,936
10/10/98,06:25:01,530,177,-17,54,934
10/10/98,06:30:01,628,177,-17,52,934
10/10/98,06:35:01,575,177,-17,52,934
10/10/98,06:40:01,520,177,-17,50,934
10/10/98,06:45:01,611,177,-17,50,934
10/10/98,06:50:01,589,177,-17,46,934
10/10/98,06:55:01,404,203,-17,46,936
10/10/98,07:00:01,272,223,-17,44,936
10/10/98,07:05:01,217,269,-17,42,936
10/10/98,07:10:01,241,194,-17,34,936
10/10/98,07:15:01,175,202,-17,32,938
10/10/98,07:20:01,76,224,-17,28,938
10/10/98,07:25:01,257,192,-17,28,938
10/10/98,07:30:01,382,173,-17,24,938
10/10/98,07:35:01,432,168,-17,22,936
10/10/98,07:40:01,397,180,-18,18,936
10/10/98,07:45:01,436,171,-18,15,936
10/10/98,07:50:01,571,181,-18,13,936
10/10/98,07:55:01,619,166,-18,13,936
10/10/98,08:00:01,673,176,-18,9,936
10/10/98,08:05:01,665,176,-18,9,936
10/10/98,08:10:01,656,176,-18,9,936
10/10/98,08:15:01,702,176,-19,9,936
10/10/98,08:20:01,709,176,-19,9,936
10/10/98,08:25:01,684,176,-19,9,934
10/10/98,08:30:01,600,186,-19,6,936
10/10/98,08:35:01,561,186,-19,6,936
10/10/98,08:40:01,558,186,-19,4,936
10/10/98,08:45:01,566,186,-19,4,936
10/10/98,08:50:01,606,176,-19,4,936
10/10/98,08:55:01,653,176,-19,2,936
10/10/98,09:00:01,572,176,-19,2,936
10/10/98,09:05:01,656,176,-19,2,936
10/10/98,09:10:01,639,176,-19,2,936
10/10/98,09:15:01,635,176,-19,0,936
10/10/98,09:20:01,649,176,-19,0,936
10/10/98,09:25:01,719,175,-19,0,934
10/10/98,09:30:01,665,175,-19,0,936
10/10/98,09:35:01,585,175,-19,0,936
10/10/98,09:40:01,633,175,-19,0,936
10/10/98,09:45:01,589,175,-19,0,936
10/10/98,09:50:01,706,187,-19,0,936
10/10/98,09:55:01,662,175,-19,0,936
10/10/98,10:00:01,570,175,-19,0,936
10/10/98,10:05:01,707,175,-19,0,936
10/10/98,10:10:01,546,185,-19,0,938
10/10/98,10:15:01,618,174,-19,0,936
10/10/98,10:20:01,608,174,-19,0,936
10/10/98,10:25:01,649,174,-19,0,936
10/10/98,10:30:01,693,175,-19,0,936
10/10/98,10:35:01,684,175,-19,0,936
10/10/98,10:40:01,559,175,-19,0,936
10/10/98,10:45:01,722,176,-19,0,934
10/10/98,10:50:01,709,176,-19,0,934
10/10/98,10:55:01,738,176,-19,0,934
10/10/98,11:00:01,814,166,-18,0,934
10/10/98,11:05:01,769,168,-18,0,934
10/10/98,11:10:01,752,178,-18,0,934
10/10/98,11:15:01,733,178,-18,0,936
10/10/98,11:20:01,730,178,-18,0,936
10/10/98,11:25:01,740,178,-18,0,936
10/10/98,11:30:01,679,178,-18,0,936
10/10/98,11:35:01,667,178,-18,0,934
10/10/98,11:40:01,722,178,-18,0,934
10/10/98,11:45:01,757,175,-18,0,934
10/10/98,11:50:01,818,175,-18,0,934
10/10/98,11:55:01,784,175,-18,0,934
10/10/98,12:00:01,844,177,-18,0,934
10/10/98,12:05:01,730,167,-18,0,934
10/10/98,12:10:01,654,167,-18,0,934
10/10/98,12:15:01,726,177,-18,0,936
10/10/98,12:20:01,796,182,-18,0,934
10/10/98,12:25:01,843,182,-18,0,936
10/10/98,12:30:01,811,182,-18,0,935
10/10/98,12:35:01,655,182,-19,0,936
10/10/98,12:40:01,559,182,-19,0,936
10/10/98,12:45:01,649,182,-19,0,936
10/10/98,12:50:01,682,172,-19,0,936
10/10/98,12:55:01,694,172,-19,0,934
10/10/98,13:00:01,776,172,-19,0,934
10/10/98,13:05:01,770,172,-19,0,934
10/10/98,13:10:01,748,172,-19,0,934
10/10/98,13:15:01,745,172,-19,0,932
10/10/98,13:20:01,781,172,-19,0,934
10/10/98,13:25:01,612,172,-19,0,934
10/10/98,13:30:01,643,178,-19,0,936
10/10/98,13:35:01,638,178,-19,0,936
10/10/98,13:40:01,568,178,-19,0,936
10/10/98,13:45:01,518,178,-19,0,936
10/10/98,13:50:01,639,178,-18,0,936
10/10/98,13:55:01,571,178,-18,0,936
10/10/98,14:00:01,624,178,-18,0,936
10/10/98,14:05:01,575,178,-18,0,936
10/10/98,14:10:01,768,180,-18,0,936
10/10/98,14:15:01,694,180,-18,0,936
10/10/98,14:20:01,684,168,-18,0,936
10/10/98,14:25:01,674,168,-18,0,936
10/10/98,14:30:01,614,168,-18,0,936
10/10/98,14:35:01,622,178,-18,0,936
10/10/98,14:40:01,529,178,-18,0,936
10/10/98,14:45:01,545,178,-18,0,936
10/10/98,14:50:01,563,178,-18,0,936
10/10/98,14:55:01,594,178,-18,0,936
10/10/98,15:00:01,599,178,-18,0,936
10/10/98,15:05:01,518,180,-18,0,936
10/10/98,15:10:01,628,168,-19,0,936
10/10/98,15:15:01,559,168,-19,0,936
10/10/98,15:20:01,622,168,-19,0,936
10/10/98,15:25:01,563,168,-19,0,936
10/10/98,15:30:01,499,168,-19,0,936
10/10/98,15:35:01,621,168,-18,0,936
10/10/98,15:40:01,609,178,-18,0,936
10/10/98,15:45:01,547,178,-18,0,936
10/10/98,15:50:01,481,178,-18,0,936
10/10/98,15:55:01,509,178,-18,0,936
10/10/98,16:00:01,498,178,-18,0,938
10/10/98,16:05:01,521,179,-18,0,936
10/10/98,16:10:01,524,179,-18,0,936
10/10/98,16:15:01,542,179,-18,0,936
10/10/98,16:20:01,499,180,-18,0,936
10/10/98,16:25:01,689,168,-18,0,936
10/10/98,16:30:01,611,168,-18,0,936
10/10/98,16:35:01,793,168,-18,2,936
10/10/98,16:40:01,676,173,-18,2,936
10/10/98,16:45:01,710,173,-19,2,936
10/10/98,16:50:01,616,163,-19,2,936
10/10/98,16:55:01,622,173,-19,2,936
10/10/98,17:00:01,631,173,-19,2,936
10/10/98,17:05:01,577,164,-19,2,936
10/10/98,17:10:01,661,175,-19,4,936
10/10/98,17:15:01,801,175,-19,6,936
10/10/98,17:20:01,729,179,-19,8,936
10/10/98,17:25:01,635,179,-19,8,938
10/10/98,17:30:01,753,179,-19,10,938
10/10/98,17:35:01,685,179,-19,12,936
10/10/98,17:40:01,595,176,-19,14,936
10/10/98,17:45:01,646,176,-19,14,936
10/10/98,17:50:01,702,166,-19,14,936
10/10/98,17:55:01,683,166,-19,14,936
10/10/98,18:00:01,635,166,-19,16,936
10/10/98,18:05:01,687,166,-19,18,934
10/10/98,18:10:01,761,166,-19,20,934
10/10/98,18:15:01,730,166,-19,22,934
10/10/98,18:20:01,840,166,-19,22,934
10/10/98,18:25:01,702,166,-19,23,934
10/10/98,18:30:01,807,166,-19,26,934
10/10/98,18:35:01,722,166,-19,26,934
10/10/98,18:40:01,757,166,-19,31,934
10/10/98,18:45:01,752,177,-19,30,936
10/10/98,18:50:01,737,167,-19,30,936
10/10/98,18:55:01,700,167,-19,33,934
10/10/98,19:00:01,742,168,-19,32,936
10/10/98,19:05:01,674,168,-19,32,934
10/10/98,19:10:01,743,168,-19,33,936
10/10/98,19:15:01,782,168,-19,35,934
10/10/98,19:20:01,802,168,-19,38,934
10/10/98,19:25:01,743,168,-19,42,934
10/10/98,19:30:01,738,168,-19,46,934
10/10/98,19:35:01,807,175,-19,47,934
10/10/98,19:40:01,795,175,-19,47,936
10/10/98,19:45:01,737,175,-19,39,936
10/10/98,19:50:01,657,174,-19,36,938
10/10/98,19:55:01,663,178,-19,45,938
10/10/98,20:00:01,697,178,-20,49,936
10/10/98,20:05:01,677,168,-20,51,936
10/10/98,20:10:01,754,168,-19,52,936
10/10/98,20:15:01,696,168,-19,57,936
10/10/98,20:20:01,657,168,-19,57,936
10/10/98,20:25:01,796,169,-19,70,934
10/10/98,20:30:01,844,168,-19,72,934
10/10/98,20:35:01,792,165,-19,76,934
10/10/98,20:40:01,804,165,-19,66,934
10/10/98,20:45:01,720,165,-19,72,934
10/10/98,20:50:01,707,165,-19,72,934
10/10/98,20:55:01,731,165,-19,73,936
10/10/98,21:00:01,573,165,-19,70,936
10/10/98,21:05:01,675,165,-19,70,936
10/10/98,21:10:01,683,165,-19,75,936
10/10/98,21:15:01,754,165,-19,73,934
10/10/98,21:20:01,771,169,-19,79,934
10/10/98,21:25:01,902,170,-19,79,936
10/10/98,21:30:01,764,169,-19,84,936
10/10/98,21:35:01,767,169,-19,82,934
10/10/98,21:40:01,838,169,-19,92,934
10/10/98,21:45:01,803,169,-19,87,936
10/10/98,21:50:01,754,170,-19,76,936
10/10/98,21:55:01,752,170,-19,76,936
10/10/98,22:00:01,750,170,-19,77,936
10/10/98,22:05:01,698,170,-19,81,936
10/10/98,22:10:01,764,166,-19,91,936
10/10/98,22:15:01,705,166,-19,83,936
10/10/98,22:20:01,823,166,-19,102,936
10/10/98,22:25:01,698,166,-19,99,936
10/10/98,22:30:01,697,162,-19,100,936
10/10/98,22:35:01,764,171,-19,111,936
10/10/98,22:40:01,724,171,-19,112,936
10/10/98,22:45:01,751,171,-19,113,936
10/10/98,22:50:01,816,171,-19,118,936
10/10/98,22:55:01,749,171,-19,118,936
10/10/98,23:00:01,749,171,-19,118,936
10/10/98,23:05:01,760,171,-19,124,936
10/10/98,23:10:01,743,171,-19,120,936
10/10/98,23:15:01,714,171,-19,111,936
10/10/98,23:20:01,692,171,-19,106,936
10/10/98,23:25:01,803,177,-19,120,936
10/10/98,23:30:01,713,177,-19,118,936
10/10/98,23:35:01,745,175,-19,122,936
10/10/98,23:40:01,700,164,-19,120,936
10/10/98,23:45:01,794,164,-19,118,936
10/10/98,23:50:01,774,164,-19,132,936
10/10/98,23:55:01,692,177,-19,139,936
10/11/98,00:00:01,866,171,-19,138,936
